Location: Waco, TX
(31.5480°N, 97.1670°W)
Time: 04:47:49
(UTC-05:00)

ISS - Pass Details

Date: 24 May 2018
Orbit: 402 x 407 km, 51.6° (Epoch: 27 May)

Event Time Altitude Azimuth Distance (km) Brightness Sun altitude
Rises 03:43:52 0° 326° (NW) 2,314 - -28.0°
Reaches altitude 10° 03:46:10 10° 340° (NNW) 1,453 - -27.8°
Maximum altitude 03:48:57 26° 39° (NE) 836 - -27.4°
Drops below altitude 10° 03:51:44 10° 98° (E) 1,448 - -27.0°
Exits shadow 03:53:22 - 109° (ESE) 2,052 0.0 -26.8°
Sets 03:54:01 0° 112° (ESE) 2,304 0.2 -26.7°
